{"data":{"norad_id":59009,"intl_designator":"2024-036M","name":"STARLINK-31488","alt_names":[],"object_type":"PAYLOAD","status":"ACTIVE","operator":null,"country":"US","launch_date":"2024-02-23","launch_site_code":"AFWTR","launch_vehicle":null,"mission":null,"orbit_class":"UNKNOWN","rcs_meters":null,"size_class":null,"mass_kg":null,"dimensions":null,"purposes":["comms"],"wikipedia_slug":null,"has_3d_model":false,"image_url":null,"decayed_at":null,"tle_current":{"epoch":"2026-09-20T05:45:42.294240Z","epoch_age_seconds":178114,"freshness":"STALE","line1":"1 59009U 24036M   26263.24007285  .00000906  00000+0  37957-4 0  9994","line2":"2 59009  53.1580 252.7709 0001376  79.8165 280.2993 15.34388800145139","mean_motion":15.343888,"eccentricity":0.0001376,"inclination_deg":53.158,"raan_deg":252.7709,"arg_perigee_deg":79.8165,"mean_anomaly_deg":280.2993,"bstar":3.7957e-5,"rev_number":14513,"period_min":93.848443106467,"perigee_km":461.79522497227,"apogee_km":463.6778333675,"semimajor_km":6840.8735291699,"source":"CELESTRAK","updated_at":"2026-09-21T09:00:34.025149Z"}}}